TimeCET,TemperatureF,Dew PointF,Humidity,Sea Level PressureIn,VisibilityMPH,Wind Direction,Wind SpeedMPH,Gust SpeedMPH,PrecipitationIn,Events,Conditions,WindDirDegrees,DateUTC
12:25 AM,26.6,24.8,93,30.24,5.0,SSW,15.0,-,N/A,,Unknown,200,2012-12-08 23:25:00
12:55 AM,28.4,24.8,86,30.24,5.0,SSW,16.1,-,N/A,,Partly Cloudy,210,2012-12-08 23:55:00
1:00 AM,28,25,85,30.28,4,SSW,15.7,,,,Mist,210,2012-12-09 00:00:00
1:25 AM,28.4,26.6,93,30.24,4.3,SSW,16.1,-,N/A,,Mostly Cloudy,200,2012-12-09 00:25:00
1:55 AM,28.4,26.6,93,30.21,4.3,SSW,17.3,-,N/A,,Overcast,210,2012-12-09 00:55:00
2:25 AM,28.4,26.6,93,30.21,5.0,SSW,17.3,-,N/A,,Mostly Cloudy,200,2012-12-09 01:25:00
2:55 AM,28.4,26.6,93,30.21,5.0,SSW,16.1,-,N/A,,Overcast,210,2012-12-09 01:55:00
3:25 AM,30.2,26.6,86,30.21,1.7,SSW,16.1,-,N/A,Snow,Light Snow,200,2012-12-09 02:25:00
3:55 AM,30.2,28.4,93,30.18,1.6,SSW,15.0,-,N/A,Snow,Light Snow,210,2012-12-09 02:55:00
4:00 AM,29,29,98,30.22,1,SSW,15.7,,,Snow,Snow Showers,210,2012-12-09 03:00:00
4:25 AM,30.2,30.2,100,30.18,0.7,SSW,16.1,-,N/A,Snow,Snow,210,2012-12-09 03:25:00
4:55 AM,30.2,30.2,100,30.15,1.6,SSW,18.4,-,N/A,Snow,Light Snow,210,2012-12-09 03:55:00
5:25 AM,30.2,30.2,100,30.12,1.4,SSW,17.3,-,N/A,Snow,Light Snow,210,2012-12-09 04:25:00
5:55 AM,32.0,30.2,93,30.12,1.6,SW,25.3,-,N/A,Snow,Light Snow,220,2012-12-09 04:55:00
6:25 AM,32.0,30.2,93,30.09,1.6,SSW,21.9,-,N/A,Snow,Light Snow,210,2012-12-09 05:25:00
6:55 AM,32.0,32.0,100,30.09,2.5,SSW,23.0,-,N/A,Snow,Light Snow,210,2012-12-09 05:55:00
7:00 AM,32,31,96,30.13,3,SSW,22.4,,,Snow,Light Snow,210,2012-12-09 06:00:00
7:25 AM,32.0,32.0,100,30.09,3.1,SW,19.6,-,N/A,Rain,Rain,220,2012-12-09 06:25:00
7:55 AM,33.8,32.0,93,30.06,2.8,SW,20.7,-,N/A,Rain,Rain,220,2012-12-09 06:55:00
8:25 AM,33.8,32.0,93,30.06,2.5,SW,20.7,-,N/A,Rain,Light Rain,220,2012-12-09 07:25:00
8:55 AM,33.8,33.8,100,30.04,1.3,SW,21.9,-,N/A,,Drizzle,220,2012-12-09 07:55:00
9:25 AM,33.8,33.8,100,30.04,1.2,SW,20.7,-,N/A,Rain,Light Rain,230,2012-12-09 08:25:00
9:55 AM,35.6,33.8,93,30.04,-9999.0,SW,19.6,-,N/A,,Heavy Drizzle,230,2012-12-09 08:55:00
10:00 AM,35,34,94,30.06,2,SW,17.9,,,Rain,Heavy Drizzle,220,2012-12-09 09:00:00
10:25 AM,35.6,35.6,100,30.01,1.6,SW,18.4,-,N/A,Rain,Light Rain,220,2012-12-09 09:25:00
10:55 AM,35.6,35.6,100,30.01,1.1,SW,18.4,-,N/A,Rain,Light Rain,220,2012-12-09 09:55:00
11:25 AM,35.6,35.6,100,29.98,-9999.0,SW,19.6,-,N/A,,Light Drizzle,230,2012-12-09 10:25:00
11:55 AM,37.4,35.6,93,29.98,1.5,SW,19.6,-,N/A,Rain,Light Rain,230,2012-12-09 10:55:00
12:25 PM,37.4,37.4,100,29.95,3.7,SW,18.4,-,N/A,,Overcast,230,2012-12-09 11:25:00
12:55 PM,37.4,37.4,100,29.95,2.8,SW,17.3,-,N/A,,Drizzle,230,2012-12-09 11:55:00
1:00 PM,37,37,98,29.97,2,SW,17.9,,,Rain,Light Rain Showers,230,2012-12-09 12:00:00
1:25 PM,37.4,37.4,100,29.92,-9999.0,SW,17.3,-,N/A,Rain,Rain,230,2012-12-09 12:25:00
1:55 PM,37.4,37.4,100,29.92,-9999.0,SW,18.4,-,N/A,Rain,Heavy Rain Showers,230,2012-12-09 12:55:00
2:25 PM,37.4,37.4,100,29.89,-9999.0,SW,18.4,-,N/A,,Drizzle,230,2012-12-09 13:25:00
2:55 PM,39.2,39.2,100,29.89,-9999.0,SW,17.3,-,N/A,,Drizzle,230,2012-12-09 13:55:00
3:25 PM,39.2,39.2,100,29.86,2.8,WSW,12.7,-,N/A,,Heavy Drizzle,240,2012-12-09 14:25:00
3:55 PM,39.2,39.2,100,29.86,4.3,WSW,15.0,-,N/A,Rain,Light Rain,240,2012-12-09 14:55:00
4:00 PM,40,40,99,29.89,4,WSW,13.4,,,Rain,Light Rain,240,2012-12-09 15:00:00
4:25 PM,41.0,39.2,93,29.86,4.3,WSW,13.8,-,N/A,,Light Drizzle,240,2012-12-09 15:25:00
4:55 PM,41.0,39.2,93,29.86,-9999.0,SW,15.0,-,N/A,Rain,Light Rain,230,2012-12-09 15:55:00
5:25 PM,41.0,39.2,93,29.83,5.6,WSW,12.7,-,N/A,,Mostly Cloudy,240,2012-12-09 16:25:00
5:55 PM,41.0,41.0,100,29.83,5.6,SW,15.0,-,N/A,,Overcast,230,2012-12-09 16:55:00
6:25 PM,41.0,41.0,100,29.80,6.2,SW,17.3,-,N/A,,Overcast,230,2012-12-09 17:25:00
6:55 PM,41.0,39.2,93,29.80,6.2,WSW,15.0,-,N/A,,Mostly Cloudy,240,2012-12-09 17:55:00
7:00 PM,42,40,89,29.83,7,WSW,13.4,,,Rain,Light Rain Showers,240,2012-12-09 18:00:00
7:25 PM,37.4,37.4,100,29.80,3.7,WNW,13.8,-,N/A,Rain,Heavy Rain Showers,290,2012-12-09 18:25:00
7:55 PM,39.2,37.4,93,29.80,6.2,West,10.4,-,N/A,Rain,Light Rain Showers,280,2012-12-09 18:55:00
8:25 PM,39.2,37.4,93,29.80,6.2,West,8.1,-,N/A,,Scattered Clouds,260,2012-12-09 19:25:00
8:55 PM,39.2,37.4,93,29.80,6.2,WSW,8.1,-,N/A,,Partly Cloudy,250,2012-12-09 19:55:00
9:25 PM,39.2,37.4,93,29.77,6.2,WSW,10.4,-,N/A,,Mostly Cloudy,250,2012-12-09 20:25:00
9:55 PM,39.2,37.4,93,29.77,6.2,WSW,10.4,-,N/A,,Unknown,240,2012-12-09 20:55:00
10:00 PM,38,36,92,29.80,9,WSW,11.2,,,,Partly Cloudy,240,2012-12-09 21:00:00
10:25 PM,39.2,37.4,93,29.77,6.2,West,9.2,-,N/A,,Overcast,260,2012-12-09 21:25:00
10:55 PM,39.2,35.6,87,29.77,6.2,West,11.5,23.0,N/A,,Drizzle,270,2012-12-09 21:55:00
11:25 PM,37.4,35.6,93,29.77,6.2,West,10.4,-,N/A,,Unknown,270,2012-12-09 22:25:00
11:55 PM,37.4,33.8,87,29.77,6.2,West,10.4,-,N/A,,Mostly Cloudy,260,2012-12-09 22:55:00